Weather History for Altus AFB, OK

Change the Weather History Date:

Tuesday, June 4, 2013

  Actual Average Record
Temperature  
Mean Temperature 82 °F -  
Max Temperature 98 °F 86 °F 101 °F (2014)
Min Temperature 66 °F 64 °F 61 °F (2007)
Cooling Degree Days 16    
Growing Degree Days 32 (Base 50)    
Moisture  
Dew Point 66 °F    
Average Humidity 58    
Maximum Humidity 100    
Minimum Humidity 33    
Precipitation  
Precipitation 0.02 in - - ()
Sea Level Pressure  
Sea Level Pressure 29.75 in    
Wind  
Wind Speed 18 mph (SE)    
Max Wind Speed 26 mph    
Max Gust Speed 33 mph    
Visibility 10 miles    
Events Rain    
Averages and records for this station are not official NWS values.
T = Trace of Precipitation, MM = Missing Value Source: NWS Daily Summary

Daily Weather History Graph

Daily Weather History Graph

Search for Another Location

Airport:

Trip Planner

Search our weather history database for the weather conditions in past years. The results will help you decide how hot, cold, wet, or windy it might be!

Date:

Astronomy

Jun. 04, 2013 Rise Set
Actual Time 6:24 AM CDT 8:46 PM CDT
Civil Twilight 5:55 AM CDT 9:16 PM CDT
Nautical Twilight 5:19 AM CDT 9:52 PM CDT
Astronomical Twilight 4:40 AM CDT 10:31 PM CDT
Moon 3:47 AM CDT (6/4) 5:24 PM CDT (6/4)
Length of Visible Light 15h 20m
Length of Day
14h 22m
Waning Crescent, 14% of the Moon is Illuminated
Jun 4
Waning Crescent
Jun 8
New
Jun 16
First Quarter
Jun 23
Full
Jun 29
Last Quarter

Hourly Weather History & Observations

Time (CDT) Temp. Heat Index Dew Point Humidity Pressure Visibility Wind Dir Wind Speed Gust Speed Precip Events Conditions
12:59 AM 78.8 °F - 57.2 °F 47% 29.73 in 10.0 mi SE 17.3 mph - N/A   Clear
1:56 AM 77.0 °F - 57.2 °F 50% 29.78 in 10.0 mi ESE 12.7 mph - N/A Rain Light Rain
6:58 AM 66.2 °F - 66.0 °F 99% 29.81 in 10.0 mi East 19.6 mph 26.5 mph 0.02 in   Mostly Cloudy
7:58 AM 66.0 °F - 66.0 °F 100% 29.79 in 10.0 mi ESE 20.7 mph 29.9 mph N/A   Scattered Clouds
8:58 AM 69.4 °F - 66.7 °F 91% 29.79 in 10.0 mi SE 23.0 mph 29.9 mph N/A   Clear
9:58 AM 75.4 °F - 66.4 °F 73% 29.80 in 10.0 mi SE 26.5 mph 33.4 mph N/A   Clear
10:58 AM 79.3 °F - 66.4 °F 64% 29.81 in 10.0 mi SE 24.2 mph 31.1 mph N/A   Clear
11:58 AM 83.5 °F 86.0 °F 66.6 °F 57% 29.79 in 10.0 mi SE 24.2 mph 31.1 mph N/A   Clear
12:58 PM 88.0 °F 90.3 °F 66.0 °F 48% 29.76 in 10.0 mi SSE 19.6 mph 27.6 mph N/A   Clear
1:58 PM 90.3 °F 92.2 °F 65.3 °F 43% 29.75 in 10.0 mi South 17.3 mph 24.2 mph N/A   Partly Cloudy
2:58 PM 94.6 °F 96.4 °F 64.2 °F 36% 29.74 in 10.0 mi SSW 11.5 mph - N/A   Scattered Clouds
3:58 PM 96.3 °F 98.1 °F 63.7 °F 34% 29.72 in 10.0 mi South 10.4 mph 16.1 mph N/A   Partly Cloudy
4:58 PM 96.6 °F 99.2 °F 64.8 °F 35% 29.70 in 10.0 mi SE 12.7 mph - N/A   Scattered Clouds
5:58 PM 97.7 °F 100.0 °F 64.4 °F 33% 29.68 in 10.0 mi SE 17.3 mph 23.0 mph N/A   Scattered Clouds
6:10 PM 96.8 °F 99.0 °F 64.4 °F 34% 29.73 in 10.0 mi East 16.1 mph - N/A   Partly Cloudy
6:58 PM 93.4 °F 98.1 °F 68.2 °F 44% 29.70 in 10.0 mi East 24.2 mph 29.9 mph N/A   Clear
7:58 PM 87.3 °F 91.2 °F 68.5 °F 54% 29.72 in 10.0 mi East 20.7 mph 31.1 mph N/A   Clear
8:58 PM 83.7 °F 86.7 °F 68.2 °F 59% 29.73 in 10.0 mi East 21.9 mph 27.6 mph N/A   Clear
9:58 PM 80.8 °F 84.2 °F 70.2 °F 70% 29.76 in 10.0 mi East 17.3 mph 27.6 mph N/A   Clear
10:58 PM 79.3 °F - 69.4 °F 72% 29.76 in 10.0 mi East 16.1 mph 24.2 mph N/A   Clear
11:58 PM 78.4 °F - 68.9 °F 72% 29.76 in 10.0 mi ESE 16.1 mph - N/A   Clear